When you browse on this site, cookies collect data to enhance your experience and personalize the content and advertising you see.
Visit our Privacy Policy to learn more. By continuing to use the site, you agree to this use of cookies and data.
  • In Czech Republic
  • List of Countries
  • For 7 days
  • Water Temperature
  • Weather Map
  • Weather Widgets
  • user-avatar
    Login

    Hourly Weather Matanza

    Today, 15 November, Friday

    Time Temperature Precipitation Wind Pressure Humidity
    00:00 +13°C° 0 mm 0 mps 596 mmHg 95%
    01:00 +13°C° 0 mm 0 mps 595 mmHg 96%
    02:00 +13°C° 0.4 mm 0 mps 595 mmHg 96%
    03:00 +13°C° 0.4 mm 0 mps 595 mmHg 95%
    04:00 +13°C° 0.4 mm 0 mps 595 mmHg 95%
    05:00 +13°C° 0.1 mm 0 mps 596 mmHg 95%
    06:00 +14°C° 0.1 mm 0 mps 596 mmHg 94%
    07:00 +15°C° 0 mm 0 mps 597 mmHg 93%
    08:00 +15°C° 0.4 mm 0 mps 597 mmHg 92%
    09:00 +18°C° 0.4 mm 1 mps 598 mmHg 91%
    10:00 +19°C° 0.4 mm 1 mps 598 mmHg 90%
    11:00 +19°C° 0.7 mm 1 mps 597 mmHg 90%
    12:00 +19°C° 0.7 mm 1 mps 597 mmHg 90%
    13:00 +20°C° 0.7 mm 1 mps 596 mmHg 90%
    14:00 +19°C° 0.6 mm 1 mps 595 mmHg 90%
    15:00 +19°C° 0.6 mm 1 mps 595 mmHg 91%
    16:00 +19°C° 0.6 mm 1 mps 595 mmHg 91%
    17:00 +18°C° 0.3 mm 1 mps 595 mmHg 93%
    18:00 +16°C° 0.3 mm 1 mps 595 mmHg 95%
    19:00 +14°C° 0.3 mm 0 mps 595 mmHg 96%
    20:00 +13°C° 0 mm 0 mps 595 mmHg 96%
    21:00 +14°C° 0 mm 1 mps 595 mmHg 95%
    22:00 +14°C° 0 mm 1 mps 596 mmHg 94%
    23:00 +13°C° 0.2 mm 1 mps 595 mmHg 94%

    Tomorrow, 16 November, Saturday

    Time Temperature Precipitation Wind Pressure Humidity
    00:00 +13°C° 0.2 mm 1 mps 595 mmHg 94%
    01:00 +13°C° 0.2 mm 1 mps 594 mmHg 94%
    02:00 +13°C° 0.1 mm 1 mps 594 mmHg 94%
    03:00 +13°C° 0.1 mm 1 mps 594 mmHg 94%
    04:00 +13°C° 0.1 mm 1 mps 594 mmHg 94%
    05:00 +13°C° 0 mm 0 mps 595 mmHg 93%
    06:00 +14°C° 0 mm 0 mps 595 mmHg 91%
    07:00 +15°C° 0 mm 0 mps 596 mmHg 90%
    08:00 +18°C° 0.1 mm 1 mps 596 mmHg 86%
    09:00 +19°C° 0.1 mm 1 mps 597 mmHg 82%
    10:00 +19°C° 0.1 mm 2 mps 598 mmHg 78%
    11:00 +19°C° 0.4 mm 2 mps 597 mmHg 79%
    12:00 +19°C° 0.4 mm 2 mps 596 mmHg 80%
    13:00 +20°C° 0.4 mm 1 mps 595 mmHg 81%
    14:00 +20°C° 0.4 mm 1 mps 595 mmHg 83%
    15:00 +19°C° 0.4 mm 1 mps 594 mmHg 86%
    16:00 +19°C° 0.4 mm 1 mps 594 mmHg 88%
    17:00 +18°C° 0.4 mm 1 mps 594 mmHg 91%
    18:00 +16°C° 0.4 mm 1 mps 594 mmHg 94%
    19:00 +14°C° 0.4 mm 0 mps 594 mmHg 97%
    20:00 +14°C° 0.2 mm 0 mps 594 mmHg 96%
    21:00 +14°C° 0.2 mm 0 mps 595 mmHg 96%
    22:00 +14°C° 0.2 mm 0 mps 595 mmHg 96%
    23:00 +14°C° 0.3 mm 0 mps 595 mmHg 96%

    Day after tomorrow, 17 November, Sunday

    Time Temperature Precipitation Wind Pressure Humidity
    00:00 +13°C° 0.3 mm 0 mps 594 mmHg 96%
    01:00 +13°C° 0.3 mm 0 mps 594 mmHg 96%
    02:00 +13°C° 0.2 mm 0 mps 594 mmHg 95%
    03:00 +13°C° 0.2 mm 0 mps 594 mmHg 95%
    04:00 +13°C° 0.2 mm 0 mps 594 mmHg 94%
    05:00 +13°C° 0 mm 0 mps 594 mmHg 93%
    06:00 +14°C° 0 mm 0 mps 595 mmHg 91%
    07:00 +15°C° 0 mm 0 mps 595 mmHg 90%
    08:00 +18°C° 0.1 mm 1 mps 596 mmHg 85%
    09:00 +19°C° 0.1 mm 1 mps 597 mmHg 81%
    10:00 +20°C° 0.1 mm 2 mps 597 mmHg 77%
    11:00 +19°C° 0.4 mm 2 mps 596 mmHg 80%
    12:00 +20°C° 0.4 mm 1 mps 595 mmHg 82%
    13:00 +20°C° 0.4 mm 1 mps 594 mmHg 85%
    14:00 +19°C° 0.6 mm 1 mps 594 mmHg 87%
    15:00 +19°C° 0.6 mm 1 mps 593 mmHg 89%
    16:00 +19°C° 0.6 mm 1 mps 593 mmHg 91%
    17:00 +18°C° 0.5 mm 1 mps 593 mmHg 93%
    18:00 +15°C° 0.5 mm 0 mps 593 mmHg 95%
    19:00 +14°C° 0.5 mm 0 mps 594 mmHg 97%
    20:00 +14°C° 0.2 mm 0 mps 594 mmHg 97%
    21:00 +14°C° 0.2 mm 0 mps 594 mmHg 96%
    22:00 +14°C° 0.2 mm 0 mps 595 mmHg 96%
    23:00 +14°C° 0.3 mm 0 mps 595 mmHg 96%

    18 November, Monday

    Time Temperature Precipitation Wind Pressure Humidity
    00:00 +13°C° 0.3 mm 0 mps 594 mmHg 96%
    01:00 +13°C° 0.3 mm 0 mps 594 mmHg 96%
    02:00 +13°C° 0.2 mm 0 mps 594 mmHg 96%
    03:00 +13°C° 0.2 mm 0 mps 594 mmHg 96%
    04:00 +13°C° 0.2 mm 0 mps 594 mmHg 97%
    05:00 +13°C° 0.1 mm 0 mps 595 mmHg 96%
    06:00 +14°C° 0.1 mm 0 mps 595 mmHg 95%
    07:00 +14°C° 0.1 mm 0 mps 596 mmHg 94%
    08:00 +16°C° 0.2 mm 1 mps 596 mmHg 91%
    09:00 +18°C° 0.2 mm 1 mps 596 mmHg 88%
    10:00 +19°C° 0.2 mm 1 mps 597 mmHg 85%
    11:00 +19°C° 0.5 mm 1 mps 596 mmHg 85%
    12:00 +19°C° 0.5 mm 1 mps 596 mmHg 85%
    13:00 +19°C° 0.5 mm 1 mps 595 mmHg 86%
    14:00 +19°C° 0.3 mm 1 mps 595 mmHg 86%
    15:00 +19°C° 0.3 mm 1 mps 595 mmHg 86%
    16:00 +19°C° 0.3 mm 1 mps 594 mmHg 86%
    17:00 +18°C° 0.2 mm 1 mps 594 mmHg 89%
    18:00 +15°C° 0.2 mm 1 mps 594 mmHg 92%
    19:00 +14°C° 0.2 mm 1 mps 594 mmHg 95%
    20:00 +14°C° 0 mm 1 mps 594 mmHg 92%
    21:00 +13°C° 0 mm 1 mps 594 mmHg 89%
    22:00 +13°C° 0 mm 1 mps 595 mmHg 85%
    23:00 +12°C° 0 mm 1 mps 594 mmHg 83%

    19 November, Tuesday

    Time Temperature Precipitation Wind Pressure Humidity
    00:00 +12°C° 0 mm 1 mps 594 mmHg 81%
    01:00 +12°C° 0 mm 1 mps 594 mmHg 79%
    02:00 +12°C° 0 mm 1 mps 594 mmHg 78%
    03:00 +12°C° 0 mm 1 mps 594 mmHg 77%
    04:00 +11°C° 0 mm 1 mps 593 mmHg 76%
    05:00 +12°C° 0 mm 1 mps 594 mmHg 73%
    06:00 +13°C° 0 mm 1 mps 595 mmHg 71%
    07:00 +15°C° 0 mm 1 mps 596 mmHg 68%
    08:00 +16°C° 0 mm 1 mps 597 mmHg 66%
    09:00 +19°C° 0 mm 1 mps 597 mmHg 64%
    10:00 +20°C° 0 mm 2 mps 598 mmHg 62%
    11:00 +20°C° 0.1 mm 2 mps 598 mmHg 64%
    12:00 +20°C° 0.1 mm 2 mps 597 mmHg 66%
    13:00 +20°C° 0.1 mm 2 mps 597 mmHg 68%
    14:00 +21°C° 0.1 mm 1 mps 596 mmHg 73%
    15:00 +20°C° 0.1 mm 1 mps 595 mmHg 78%
    16:00 +19°C° 0.1 mm 1 mps 595 mmHg 83%
    17:00 +18°C° 0.2 mm 1 mps 595 mmHg 87%
    18:00 +16°C° 0.2 mm 1 mps 595 mmHg 91%
    19:00 +15°C° 0.2 mm 1 mps 595 mmHg 95%
    20:00 +14°C° 0 mm 1 mps 595 mmHg 95%
    21:00 +14°C° 0 mm 1 mps 595 mmHg 94%
    22:00 +14°C° 0 mm 1 mps 595 mmHg 93%
    23:00 +13°C° 0 mm 1 mps 595 mmHg 93%

    20 November, Wednesday

    Time Temperature Precipitation Wind Pressure Humidity
    00:00 +12°C° 0 mm 0 mps 595 mmHg 93%
    01:00 +12°C° 0 mm 0 mps 595 mmHg 93%
    02:00 +12°C° 0.1 mm 0 mps 595 mmHg 92%
    03:00 +12°C° 0.1 mm 0 mps 595 mmHg 91%
    04:00 +11°C° 0.1 mm 0 mps 594 mmHg 90%
    05:00 +12°C° 0 mm 0 mps 595 mmHg 88%
    06:00 +13°C° 0 mm 0 mps 596 mmHg 86%
    07:00 +14°C° 0 mm 0 mps 597 mmHg 84%
    08:00 +18°C° 0.1 mm 1 mps 597 mmHg 79%
    09:00 +19°C° 0.1 mm 1 mps 598 mmHg 74%
    10:00 +20°C° 0.1 mm 2 mps 599 mmHg 70%
    11:00 +19°C° 0.3 mm 2 mps 598 mmHg 73%
    12:00 +19°C° 0.3 mm 2 mps 597 mmHg 77%
    13:00 +19°C° 0.3 mm 2 mps 596 mmHg 80%
    14:00 +19°C° 0.5 mm 1 mps 596 mmHg 84%
    15:00 +19°C° 0.5 mm 1 mps 595 mmHg 87%
    16:00 +18°C° 0.5 mm 1 mps 595 mmHg 91%
    17:00 +18°C° 0.6 mm 1 mps 595 mmHg 93%
    18:00 +16°C° 0.6 mm 1 mps 595 mmHg 94%
    19:00 +15°C° 0.6 mm 1 mps 595 mmHg 96%
    20:00 +15°C° 0.3 mm 1 mps 595 mmHg 95%
    21:00 +14°C° 0.3 mm 1 mps 595 mmHg 94%
    22:00 +14°C° 0.3 mm 1 mps 596 mmHg 93%
    23:00 +14°C° 0.4 mm 1 mps 595 mmHg 93%
    Show more